User: anonymous   Login
Location: Unspecified
(0.0000°N, 0.0000°E)
Time: 00:40:02
(UTC+00:00)
Language:

SR - Orbit

View from above orbital plane
View from above orbital plane
View from above satellite
View from above satellite

Ground track
Ground track

The orbit data is extracted from the following two-line orbital elements,

1    46U 60007B   19258.56185592 -.00000039  00000-0  15520-4 0  9999
2    46  66.6896  71.9838 0213220 334.9615  24.1265 14.49243575 99125
Epoch (UTC): 15 September 2019 13:29:04
Eccentricity: 0.0213220
inclination: 66.6896°
perigee height: 576 km
apogee height: 879 km
right ascension of ascending node: 71.9838°
argument of perigee: 334.9615°
revolutions per day: 14.49243575
mean anomaly at epoch: 24.1265°
orbit number at epoch: 9912

The dashed part of the orbit path shows where the satellite is in the earth's shadow,  

DLR